STARLINK-34564

Last updated on Tue Aug 19 2025 00:02:06 GMT+0000 (Coordinated Universal Time)

1 64852U 25152L 25230.56509780 -.00350829 00000+0 -68424-2 0 9996 2 64852 97.6050 84.2068 0001091 119.4043 240.7316 15.48756524 4784

Satellite not in orbit